Content
SEND FEEDBACK

Daily
Averages
Monthly
Summary
United States of America

SOUTHPORT, NORTH CAROLINA


Home > North America > United States > North Carolina
Elevation: 38 feet     Latitude: 34 00N     Longitude: 078 01W

WEATHER
 
SELECT A DAY
Number of Records: 143,748;   Date Range: 8/21/01 - 10/20/14
 
SHARE

PRINT THIS DATA

[ ← Previous Day ]
WEATHER ALMANAC - JANUARY 23, 2013
[ Next Day → ]
[ °C ]   °F
Weather ElementAverageHighLow
Temperature34 °F45.5 °F (11:55 pm)25.7 °F (7:35 am)
Dewpoint13.2 °F33.6 °F (11:55 pm)0.1 °F (11:35 am)
Humidity44.6 %74 % (8:35 pm)22 % (11:35 am)
Barometer30.29 in30.40 in (10:35 am)30.15 in (11:55 pm)
Wind Speed5.5 mph10.4 mph (11:35 pm)
Wind Gust16.1 mph (11:55 pm)
Weather ElementAverage
Visibility10 mi
Wind DirectionENE (74.3 °)

Weather ElementTotal
Precipitation---
Heating Degree Days29.4 (Base 65)
Averaged from 70 records on January 23, 2013
WEATHER CONDITIONS BREAKOUT
WIND DIRECTION BREAKOUT
WEATHER BY HOUR - JANUARY 23, 2013
[ °C ]   °F
Local TimeTemperatureDewpointHumidityBarometerVisibilityWind DirectionWind SpeedGust SpeedPrecipitationEventsConditions
12:35 AM30.0 °F17.4 °F59 %30.26 in10.0 miNorth (10°)4.6 mphClear
12:55 AM29.3 °F17.6 °F62 %30.25 in10.0 miNNE (30°)3.5 mphClear
1:15 AM28.6 °F19.0 °F67 %30.25 in10.0 miNorth (10°)3.5 mphClear
1:35 AM28.8 °F18.1 °F65 %30.26 in10.0 miNorth (10°)3.5 mphClear
1:55 AM28.4 °F17.4 °F63 %30.26 in10.0 miNorth (10°)3.5 mphClear
2:15 AM28.0 °F17.4 °F64 %30.26 in10.0 miNorth (10°)5.8 mphClear
2:35 AM28.2 °F15.3 °F58 %30.27 in10.0 miNorth (10°)6.9 mphClear
2:55 AM28.2 °F13.1 °F53 %30.27 in10.0 miNorth (10°)8.1 mphClear
3:15 AM28.0 °F11.1 °F49 %30.28 in10.0 miNorth (10°)9.2 mphClear
3:35 AM27.7 °F10.0 °F48 %30.28 in10.0 miNorth (10°)9.2 mphClear
3:55 AM27.3 °F8.6 °F45 %30.29 in10.0 miNNE (20°)9.2 mphClear
4:15 AM27.1 °F8.2 °F45 %30.29 in10.0 miNorth (10°)9.2 mphClear
4:35 AM26.6 °F7.5 °F45 %30.29 in10.0 miNorth (10°)8.1 mphClear
4:55 AM26.6 °F6.8 °F43 %30.29 in10.0 miNNE (20°)6.9 mphClear
5:15 AM26.6 °F5.0 °F40 %30.30 in10.0 miNNE (20°)8.1 mphClear
5:35 AM26.6 °F3.7 °F38 %30.30 in10.0 miNNE (20°)6.9 mphClear
5:55 AM26.6 °F3.6 °F37 %30.31 in10.0 miNNE (20°)6.9 mphClear
6:15 AM26.6 °F3.0 °F36 %30.32 in10.0 miNNE (20°)5.8 mphClear
6:35 AM26.6 °F3.0 °F36 %30.33 in10.0 miNNE (20°)8.1 mphClear
7:15 AM26.1 °F3.2 °F38 %30.34 in10.0 miNNE (20°)5.8 mphClear
7:35 AM25.7 °F3.7 °F39 %30.35 in10.0 miNNE (20°)6.9 mphClear
7:55 AM26.6 °F3.0 °F36 %30.36 in10.0 miNNE (20°)6.9 mphClear
8:15 AM27.9 °F3.0 °F35 %30.36 in10.0 miNNE (30°)5.8 mphClear
8:35 AM28.9 °F1.0 °F30 %30.36 in10.0 miNE (40°)9.2 mphClear
8:55 AM30.2 °F0.7 °F28 %30.37 in10.0 miNNE (30°)9.2 mphClear
9:15 AM31.5 °F1.2 °F28 %30.37 in10.0 miNE (50°)8.1 mphClear
9:35 AM31.6 °F0.5 °F27 %30.38 in10.0 miNNE (30°)5.8 mphClear
9:55 AM32.7 °F0.7 °F26 %30.39 in10.0 miNNE (20°)9.2 mphClear
10:15 AM33.4 °F0.5 °F25 %30.39 in10.0 miNNE (30°)8.1 mphClear
10:35 AM34.7 °F0.9 °F24 %30.40 in10.0 miNNE (20°)6.9 mphClear
10:55 AM36.1 °F2.3 °F24 %30.39 in10.0 miNE (50°)4.6 mphClear
11:15 AM36.9 °F2.3 °F23 %30.38 in10.0 miENE (70°)3.5 mphClear
11:35 AM36.5 °F0.1 °F22 %30.37 in10.0 miNNE (20°)4.6 mphClear
11:55 AM38.3 °F3.4 °F23 %30.36 in10.0 miNNE (20°)5.8 mphClear
12:15 PM38.3 °F3.9 °F24 %30.35 in10.0 miNNE (20°)6.9 mphClear
12:35 PM39.6 °F5.0 °F24 %30.34 in10.0 miNorth (10°)4.6 mphClear
12:55 PM39.4 °F8.1 °F27 %30.33 in10.0 miSE (140°)6.9 mphClear
1:15 PM39.7 °F10.8 °F30 %30.32 in10.0 miESE (120°)3.5 mphClear
1:35 PM39.2 °F12.2 °F33 %30.30 in10.0 miSE (140°)5.8 mphClear
1:55 PM39.6 °F13.1 °F34 %30.30 in10.0 miSSW (200°)6.9 mphClear
2:15 PM39.7 °F12.6 °F33 %30.29 in10.0 miSSW (200°)6.9 mphClear
2:35 PM39.4 °F13.8 °F35 %30.28 in10.0 miSouth (170°)6.9 mphClear
2:55 PM39.2 °F15.6 °F38 %30.28 in10.0 miSouth (170°)5.8 mphClear
3:15 PM38.7 °F16.3 °F40 %30.27 in10.0 miSouth (190°)5.8 mphClear
3:35 PM38.7 °F16.2 °F40 %30.27 in10.0 miSSE (150°)4.6 mphClear
3:55 PM38.3 °F17.2 °F43 %30.28 in10.0 miSSE (150°)5.8 mphClear
4:15 PM38.5 °F17.1 °F42 %30.27 in10.0 miSouth (190°)5.8 mphClear
4:35 PM38.7 °F16.5 °F41 %30.27 in10.0 miSSE (160°)5.8 mphClear
4:55 PM38.7 °F15.8 °F39 %30.27 in10.0 miSouth (170°)4.6 mphClear
5:15 PM38.5 °F16.0 °F40 %30.27 in10.0 miSouth (190°)3.5 mphClear
5:35 PM37.9 °F16.7 °F42 %30.26 in10.0 miCalmClear
5:55 PM36.7 °F17.8 °F46 %30.26 in10.0 miSW (230°)3.5 mphClear
6:15 PM36.9 °F17.2 °F45 %30.27 in10.0 miCalmClear
6:35 PM35.6 °F18.9 °F51 %30.27 in10.0 miCalmClear
6:55 PM34.5 °F19.2 °F54 %30.26 in10.0 miCalmClear
7:15 PM33.3 °F21.0 °F61 %30.26 in10.0 miCalmClear
7:35 PM32.2 °F21.0 °F63 %30.25 in10.0 miCalmClear
7:55 PM32.0 °F21.7 °F66 %30.25 in10.0 miCalmClear
8:15 PM31.3 °F22.8 °F71 %30.24 in10.0 miCalmClear
8:35 PM31.1 °F23.5 °F74 %30.24 in10.0 miCalmClear
8:55 PM31.8 °F22.8 °F69 %30.22 in10.0 miCalmClear
9:15 PM37.6 °F23.0 °F56 %30.22 in10.0 miSouth (180°)4.6 mphClear
9:35 PM39.6 °F23.7 °F53 %30.22 in10.0 miSouth (190°)5.8 mphClear
9:55 PM40.8 °F25.7 °F55 %30.21 in10.0 miSouth (190°)5.8 mphClear
10:15 PM41.5 °F26.8 °F56 %30.21 in10.0 miSSW (210°)5.8 mphClear
10:35 PM41.9 °F29.3 °F61 %30.19 in10.0 miSSW (210°)5.8 mphClear
10:55 PM43.2 °F32.0 °F65 %30.18 in10.0 miSSW (200°)5.8 mphClear
11:15 PM44.1 °F32.4 °F63 %30.17 in10.0 miSW (220°)8.1 mphClear
11:35 PM44.8 °F32.0 °F61 %30.16 in10.0 miSW (220°)10.4 mphClear
11:55 PM45.5 °F33.6 °F63 %30.15 in10.0 miSW (230°)10.4 mph16.1 mphClear
Hourly data recorded from KSUT, located miles away from Southport, North Carolina







STORIES FROM OUR PARTNERS